ASA61 PAJN-PAYA

Flight info

Callsign ASA61
Flight time 0h 38m
Altitude 26000
Route FAKES YAK3
Aircraft B737/M-SDE2E3FGHIRWXY/LB1

Departure

Time 2026-04-14 17:33
Airport Juneau International Airport (PAJN)

Arrival

Time 2026-04-14 18:12
Airport Yakutat Airport (PAYA)
Time Latitude Longitude Altitude Speed Heading
2026-04-14 17:02 58.35847 -134.58429 33 ft 0 kts 48°
2026-04-14 17:25 58.35841 -134.58441 33 ft 3 kts 50°
2026-04-14 17:25 58.35829 -134.58471 30 ft 3 kts 57°
2026-04-14 17:25 58.35819 -134.58504 32 ft 3 kts 66°
2026-04-14 17:26 58.35812 -134.58539 30 ft 3 kts 73°
2026-04-14 17:26 58.35807 -134.58576 33 ft 3 kts 86°
2026-04-14 17:26 58.35807 -134.58614 33 ft 3 kts 99°
2026-04-14 17:26 58.35812 -134.58651 31 ft 3 kts 105°
2026-04-14 17:27 58.35814 -134.58670 30 ft 0 kts 103°
2026-04-14 17:29 58.35814 -134.58667 30 ft 1 kts 103°
2026-04-14 17:30 58.35797 -134.58636 33 ft 6 kts 169°
2026-04-14 17:30 58.35760 -134.58699 33 ft 10 kts 260°
2026-04-14 17:30 58.35770 -134.58828 31 ft 10 kts 284°
2026-04-14 17:30 58.35786 -134.58953 32 ft 10 kts 284°
2026-04-14 17:31 58.35803 -134.59075 33 ft 9 kts 285°
2026-04-14 17:31 58.35820 -134.59194 32 ft 9 kts 285°
2026-04-14 17:31 58.35837 -134.59309 33 ft 9 kts 285°
2026-04-14 17:31 58.35853 -134.59421 33 ft 9 kts 285°
2026-04-14 17:32 58.35869 -134.59529 33 ft 8 kts 285°
2026-04-14 17:32 58.35858 -134.59631 33 ft 8 kts 223°
2026-04-14 17:32 58.35789 -134.59659 34 ft 13 kts 157°
2026-04-14 17:32 58.35755 -134.59500 34 ft 22 kts 105°
2026-04-14 17:33 58.35639 -134.58672 31 ft 107 kts 104°
2026-04-14 17:33 58.35391 -134.56878 118 ft 168 kts 105°
2026-04-14 17:33 58.35074 -134.54630 889 ft 183 kts 108°
2026-04-14 17:34 58.32900 -134.52069 2499 ft 227 kts 186°
2026-04-14 17:34 58.31420 -134.53365 3180 ft 242 kts 225°
2026-04-14 17:34 58.30577 -134.56061 3919 ft 239 kts 261°
2026-04-14 17:34 58.30773 -134.59153 5093 ft 242 kts 299°
2026-04-14 17:35 58.31883 -134.61694 5790 ft 259 kts 319°
2026-04-14 17:35 58.33177 -134.64167 6796 ft 267 kts 316°
2026-04-14 17:35 58.34439 -134.66788 7872 ft 271 kts 314°
2026-04-14 17:35 58.35616 -134.69622 8904 ft 279 kts 298°
2026-04-14 17:36 58.36031 -134.73273 9912 ft 288 kts 273°
2026-04-14 17:36 58.36038 -134.77144 10673 ft 302 kts 272°
2026-04-14 17:36 58.36033 -134.81338 11026 ft 328 kts 272°
2026-04-14 17:36 58.36040 -134.85726 11855 ft 336 kts 272°
2026-04-14 17:37 58.36055 -134.90210 12845 ft 340 kts 272°
2026-04-14 17:37 58.36075 -134.94737 13797 ft 344 kts 272°
2026-04-14 17:37 58.36096 -134.99329 14670 ft 349 kts 272°
2026-04-14 17:37 58.36115 -135.03971 15555 ft 353 kts 272°
2026-04-14 17:38 58.36134 -135.08682 16448 ft 358 kts 272°
2026-04-14 17:38 58.36150 -135.13457 17330 ft 362 kts 272°
2026-04-14 17:38 58.36164 -135.18287 18185 ft 367 kts 272°
2026-04-14 17:38 58.36177 -135.23182 18946 ft 373 kts 272°
2026-04-14 17:39 58.36188 -135.28153 19712 ft 377 kts 272°
2026-04-14 17:39 58.36199 -135.33166 20541 ft 380 kts 273°
2026-04-14 17:39 58.36207 -135.38200 21432 ft 380 kts 273°
2026-04-14 17:39 58.36213 -135.43229 22416 ft 379 kts 273°
2026-04-14 17:40 58.36218 -135.48240 23389 ft 378 kts 273°
2026-04-14 17:40 58.36229 -135.53230 24160 ft 377 kts 273°
2026-04-14 17:40 58.36240 -135.58204 24966 ft 374 kts 273°
2026-04-14 17:40 58.36251 -135.63150 25660 ft 375 kts 273°
2026-04-14 17:41 58.36260 -135.68119 25971 ft 374 kts 273°
2026-04-14 17:41 58.36265 -135.73018 25983 ft 374 kts 273°
2026-04-14 17:41 58.36268 -135.77952 26001 ft 371 kts 274°
2026-04-14 17:41 58.36645 -135.82824 26026 ft 365 kts 293°
2026-04-14 17:42 58.37745 -135.87063 26039 ft 362 kts 304°
2026-04-14 17:42 58.39068 -135.91205 26026 ft 361 kts 306°
2026-04-14 17:42 58.40409 -135.95252 25942 ft 361 kts 306°
2026-04-14 17:42 58.41738 -135.99246 25802 ft 361 kts 306°
2026-04-14 17:43 58.43073 -136.03288 25702 ft 360 kts 306°
2026-04-14 17:43 58.44399 -136.07338 25707 ft 360 kts 306°
2026-04-14 17:43 58.45722 -136.11410 25715 ft 361 kts 306°
2026-04-14 17:43 58.47040 -136.15490 25715 ft 361 kts 306°
2026-04-14 17:44 58.48355 -136.19582 25704 ft 361 kts 305°
2026-04-14 17:44 58.49665 -136.23674 25712 ft 361 kts 305°
2026-04-14 17:44 58.50972 -136.27766 25709 ft 361 kts 305°
2026-04-14 17:44 58.52277 -136.31862 25704 ft 360 kts 305°
2026-04-14 17:45 58.53581 -136.35962 25705 ft 360 kts 305°
2026-04-14 17:45 58.54878 -136.40049 25717 ft 360 kts 305°
2026-04-14 17:45 58.56177 -136.44148 25717 ft 360 kts 305°
2026-04-14 17:45 58.57480 -136.48267 25713 ft 361 kts 305°
2026-04-14 17:46 58.58776 -136.52372 25718 ft 361 kts 305°
2026-04-14 17:46 58.60074 -136.56487 25698 ft 361 kts 305°
2026-04-14 17:46 58.61374 -136.60619 25709 ft 361 kts 305°
2026-04-14 17:46 58.62671 -136.64748 25730 ft 361 kts 305°
2026-04-14 17:47 58.63970 -136.68890 25724 ft 362 kts 305°
2026-04-14 17:47 58.65266 -136.73029 25712 ft 362 kts 305°
2026-04-14 17:47 58.66560 -136.77172 25725 ft 362 kts 305°
2026-04-14 17:47 58.67854 -136.81324 25727 ft 361 kts 305°
2026-04-14 17:48 58.69142 -136.85460 25744 ft 361 kts 305°
2026-04-14 17:48 58.70430 -136.89606 25747 ft 361 kts 305°
2026-04-14 17:48 58.71718 -136.93757 25737 ft 361 kts 305°
2026-04-14 17:48 58.73003 -136.97906 25747 ft 361 kts 305°
2026-04-14 17:49 58.74284 -137.02047 25745 ft 361 kts 305°
2026-04-14 17:49 58.75566 -137.06203 25734 ft 361 kts 305°
2026-04-14 17:49 58.76850 -137.10370 25548 ft 363 kts 305°
2026-04-14 17:49 58.78131 -137.14541 25263 ft 360 kts 305°
2026-04-14 17:50 58.79405 -137.18688 24902 ft 357 kts 305°
2026-04-14 17:50 58.80663 -137.22794 24484 ft 355 kts 305°
2026-04-14 17:50 58.81911 -137.26876 24070 ft 352 kts 305°
2026-04-14 17:50 58.83147 -137.30929 23701 ft 349 kts 305°
2026-04-14 17:51 58.84375 -137.34957 23290 ft 347 kts 305°
2026-04-14 17:51 58.85593 -137.38964 22814 ft 345 kts 305°
2026-04-14 17:51 58.86803 -137.42936 22380 ft 341 kts 305°
2026-04-14 17:51 58.87992 -137.46861 22001 ft 337 kts 306°
2026-04-14 17:52 58.89169 -137.50760 21597 ft 334 kts 305°
2026-04-14 17:52 58.90336 -137.54622 21181 ft 332 kts 306°
2026-04-14 17:52 58.91495 -137.58456 20786 ft 328 kts 305°
2026-04-14 17:52 58.92632 -137.62243 20440 ft 324 kts 306°
2026-04-14 17:53 58.93766 -137.66008 20010 ft 322 kts 306°
2026-04-14 17:53 58.94868 -137.69668 19666 ft 317 kts 306°
2026-04-14 17:53 58.95971 -137.73348 19265 ft 315 kts 306°
2026-04-14 17:53 58.97066 -137.77010 18885 ft 313 kts 306°
2026-04-14 17:54 58.98155 -137.80649 18507 ft 311 kts 306°
2026-04-14 17:54 58.99245 -137.84287 18072 ft 312 kts 306°
2026-04-14 17:54 59.00325 -137.87934 17621 ft 310 kts 306°
2026-04-14 17:54 59.01399 -137.91521 17228 ft 306 kts 306°
2026-04-14 17:55 59.02461 -137.95067 16894 ft 302 kts 306°
2026-04-14 17:55 59.03509 -137.98576 16508 ft 299 kts 306°
2026-04-14 17:55 59.04544 -138.02055 16148 ft 296 kts 306°
2026-04-14 17:55 59.05569 -138.05509 15799 ft 293 kts 306°
2026-04-14 17:56 59.06581 -138.08934 15432 ft 292 kts 306°
2026-04-14 17:56 59.07594 -138.12340 15050 ft 289 kts 304°
2026-04-14 17:56 59.08590 -138.15709 14812 ft 287 kts 304°
2026-04-14 17:56 59.09589 -138.19092 14556 ft 291 kts 304°
2026-04-14 17:57 59.10603 -138.22522 14262 ft 292 kts 304°
2026-04-14 17:57 59.11595 -138.25904 14044 ft 285 kts 304°
2026-04-14 17:57 59.12572 -138.29247 13703 ft 282 kts 304°
2026-04-14 17:57 59.13537 -138.32554 13336 ft 281 kts 304°
2026-04-14 17:58 59.14500 -138.35853 12958 ft 279 kts 304°
2026-04-14 17:58 59.15452 -138.39122 12599 ft 277 kts 304°
2026-04-14 17:58 59.16399 -138.42375 12241 ft 275 kts 304°
2026-04-14 17:58 59.17337 -138.45604 11881 ft 273 kts 305°
2026-04-14 17:59 59.18270 -138.48819 11514 ft 271 kts 305°
2026-04-14 17:59 59.19194 -138.52006 11183 ft 270 kts 305°
2026-04-14 17:59 59.20128 -138.55224 10851 ft 276 kts 305°
2026-04-14 17:59 59.21087 -138.58532 10493 ft 284 kts 305°
2026-04-14 18:00 59.22061 -138.61900 10134 ft 284 kts 305°
2026-04-14 18:00 59.23007 -138.65197 9996 ft 274 kts 305°
2026-04-14 18:00 59.24541 -138.70538 9419 ft 269 kts 304°
2026-04-14 18:01 59.25452 -138.73710 9067 ft 267 kts 304°
2026-04-14 18:01 59.26355 -138.76859 8729 ft 264 kts 304°
2026-04-14 18:01 59.27247 -138.79975 8419 ft 261 kts 304°
2026-04-14 18:01 59.28132 -138.83067 8069 ft 259 kts 304°
2026-04-14 18:02 59.29007 -138.86132 7753 ft 257 kts 304°
2026-04-14 18:02 59.29873 -138.89167 7429 ft 255 kts 304°
2026-04-14 18:02 59.30734 -138.92189 7111 ft 253 kts 304°
2026-04-14 18:02 59.31584 -138.95181 6792 ft 251 kts 304°
2026-04-14 18:03 59.32431 -138.98157 6484 ft 249 kts 304°
2026-04-14 18:03 59.33270 -139.01114 6171 ft 248 kts 304°
2026-04-14 18:03 59.34103 -139.04049 5844 ft 246 kts 303°
2026-04-14 18:03 59.34931 -139.06970 5527 ft 244 kts 303°
2026-04-14 18:04 59.35749 -139.09867 5223 ft 242 kts 303°
2026-04-14 18:04 59.36561 -139.12746 4915 ft 240 kts 303°
2026-04-14 18:04 59.37310 -139.15666 4595 ft 242 kts 291°
2026-04-14 18:04 59.37442 -139.18969 4357 ft 244 kts 271°
2026-04-14 18:05 59.37301 -139.22243 4015 ft 238 kts 269°
2026-04-14 18:05 59.37141 -139.25420 3750 ft 226 kts 268°
2026-04-14 18:05 59.36998 -139.28340 3653 ft 205 kts 269°
2026-04-14 18:05 59.36873 -139.30996 3539 ft 187 kts 268°
2026-04-14 18:06 59.36758 -139.33519 3496 ft 185 kts 269°
2026-04-14 18:06 59.36650 -139.36023 3419 ft 183 kts 273°
2026-04-14 18:06 59.36988 -139.38312 3323 ft 174 kts 313°
2026-04-14 18:06 59.37793 -139.40056 3210 ft 173 kts 312°
2026-04-14 18:07 59.38589 -139.41794 3054 ft 172 kts 314°
2026-04-14 18:07 59.39401 -139.43428 2835 ft 159 kts 316°
2026-04-14 18:07 59.40124 -139.44848 2650 ft 136 kts 316°
2026-04-14 18:07 59.40752 -139.46078 2472 ft 124 kts 316°
2026-04-14 18:08 59.41358 -139.47262 2299 ft 123 kts 316°
2026-04-14 18:08 59.41970 -139.48457 2158 ft 126 kts 316°
2026-04-14 18:08 59.42587 -139.49666 1978 ft 123 kts 316°
2026-04-14 18:08 59.43190 -139.50845 1814 ft 122 kts 316°
2026-04-14 18:09 59.43790 -139.52021 1689 ft 123 kts 316°
2026-04-14 18:09 59.44391 -139.53201 1519 ft 120 kts 315°
2026-04-14 18:09 59.44987 -139.54366 1330 ft 121 kts 316°
2026-04-14 18:09 59.45593 -139.55556 1180 ft 123 kts 315°
2026-04-14 18:10 59.46197 -139.56732 979 ft 122 kts 315°
2026-04-14 18:10 59.46787 -139.57932 813 ft 121 kts 313°
2026-04-14 18:10 59.47381 -139.59140 651 ft 127 kts 315°
2026-04-14 18:10 59.48026 -139.60365 491 ft 131 kts 316°
2026-04-14 18:11 59.48679 -139.61610 335 ft 133 kts 315°
2026-04-14 18:11 59.49336 -139.62898 191 ft 134 kts 315°
2026-04-14 18:11 59.50002 -139.64214 43 ft 128 kts 314°
2026-04-14 18:11 59.50516 -139.65249 42 ft 84 kts 316°
2026-04-14 18:12 59.50827 -139.65847 43 ft 40 kts 315°
2026-04-14 18:12 59.50942 -139.66080 46 ft 12 kts 314°
2026-04-14 18:12 59.50992 -139.66210 46 ft 11 kts 277°
2026-04-14 18:12 59.50959 -139.66298 45 ft 8 kts 224°
2026-04-14 18:13 59.50921 -139.66370 48 ft 7 kts 224°
2026-04-14 18:13 59.50885 -139.66440 45 ft 7 kts 224°
2026-04-14 18:13 59.50850 -139.66507 48 ft 7 kts 224°
2026-04-14 18:13 59.50816 -139.66574 45 ft 7 kts 224°
2026-04-14 18:14 59.50782 -139.66638 46 ft 7 kts 224°
2026-04-14 18:14 59.50770 -139.66661 47 ft 0 kts 224°
2026-04-14 18:14 59.50768 -139.66693 48 ft 4 kts 306°
2026-04-14 18:14 59.50791 -139.66722 45 ft 3 kts 331°
2026-04-14 18:15 59.50798 -139.66729 47 ft 0 kts 332°
2026-04-14 18:18 59.50797 -139.66728 47 ft 0 kts 331°